カタログに戻る

FALCON HEAVY R/B

運用中MEO
NORAD 44345·ROCKET BODY·🇺🇸 United States

打ち上げ Jun 25, 2019 から Cape Canaveral Space Force Station

Loading…

次のパス (今後24時間)

TLE

最新Source: Space-Track

元期: Sep 14, 2026, 06:16 UTC

1 44345U 19036G   26257.26166772 -.00000012  00000-0  00000-0 0  9992
2 44345  42.2202 225.4739 2154358 165.0571 202.5163  4.69266553123820

AllMySatでFALCON HEAVY R/Bをリアルタイム追跡

Download on the App Store